Wind_Gust
28 27 28 29 30 29 30 31 31 28 30 30 30 29 31 29 29 28 27 29 27 28 27 26 24 24 24 21 20 20 20 19 21 20 21 22 21 21 23 21 19 19
27 29 28 27 27 29 31 30 29 29 30 29 29 27 25 26 26 25 26 27 29 29 28 27 26 25 24 24 22 22 21 19 20 20 21 22 21 21 22 21 21 20
23 26 29 29 30 28 29 28 28 30 31 30 29 28 28 28 29 31 31 33 31 31 30 29 28 27 26 26 24 24 23 21 22 21 21 23 22 22 21 22 22 22
24 28 29 29 30 30 30 30 29 29 30 31 29 28 26 25 27 27 27 25 25 29 28 27 28 29 28 28 26 26 24 24 23 22 23 22 22 23 22 22 22 23
26 27 28 29 30 31 30 31 33 31 30 31 28 28 27 26 27 29 29 28 28 28 30 31 29 29 28 30 28 26 25 26 24 24 25 24 23 23 23 23 23 24
27 27 28 31 31 31 34 35 34 34 34 30 31 30 28 27 28 30 30 29 30 30 30 30 28 29 29 30 29 27 27 26 24 25 27 27 25 26 25 24 23 24
25 27 30 33 32 32 32 34 34 34 34 31 30 30 29 28 29 29 30 31 32 32 31 31 29 29 29 30 31 27 28 26 26 30 28 27 27 27 26 25 25 25
28 26 27 31 33 34 36 36 33 33 32 31 31 32 30 31 31 27 28 30 31 33 32 31 30 30 30 29 31 28 28 27 27 28 28 29 27 30 28 27 24 26
25 25 26 27 31 33 34 36 33 32 33 34 33 31 32 31 30 30 30 30 31 32 32 32 32 30 30 30 31 31 31 28 27 30 29 28 29 29 31 28 25 26
27 26 26 28 30 33 33 33 34 33 34 36 34 31 33 31 30 30 29 30 30 31 34 31 31 30 30 31 32 32 32 32 30 30 30 29 29 31 29 29 28 27
28 28 27 28 31 31 34 33 33 33 33 35 34 34 34 33 30 29 29 30 32 31 33 33 33 31 32 32 32 30 32 32 31 31 29 29 29 29 24 29 29 28
30 28 29 29 31 32 32 33 34 33 33 33 34 34 36 33 30 30 30 32 31 31 31 32 33 32 32 33 33 31 31 31 31 30 30 30 29 28 29 28 28 29
31 30 30 29 30 31 32 33 35 34 35 35 34 34 33 32 31 32 31 30 30 30 32 32 33 33 32 31 32 32 33 32 31 30 28 29 28 29 28 28 29 29
31 29 29 29 29 30 32 33 34 36 36 34 33 34 33 32 32 32 34 29 29 28 30 29 29 30 31 32 33 33 32 31 30 29 29 27 24 26 26 27 28 28
30 30 29 28 29 31 31 34 35 35 35 35 34 33 34 31 33 32 36 30 27 26 26 25 20 17 22 24 31 31 30 30 29 28 28 27 25 25 26 27 27 27
33 29 29 29 29 31 33 34 33 34 35 34 34 34 32 31 29 31 35 29 27 25 25 22 21 19 17 18 14 18 23 24 23 25 26 26 25 25 25 26 27 27
33 30 30 30 29 30 30 34 34 34 33 36 34 32 32 29 29 32 33 28 26 25 24 24 23 23 28 31 31 31 31 29 28 28 26 26 26 26 26 26 26 27
32 30 31 30 30 31 32 32 31 31 31 31 31 28 28 28 28 30 32 26 24 25 25 27 25 16 25 25 26 27 26 30 29 30 28 29 28 29 28 27 27 27
31 30 31 30 30 31 30 31 33 32 31 31 31 28 26 27 31 28 28 26 25 26 26 26 25 16 22 24 26 23 25 24 29 28 30 28 28 29 28 28 26 26
30 30 30 29 29 29 29 29 33 34 30 32 29 28 27 27 27 28 26 25 25 25 26 25 27 17 22 23 25 25 23 22 22 29 28 28 29 30 28 27 27 26
30 31 29 28 29 28 28 32 30 31 32 31 29 29 29 30 30 29 27 26 26 26 26 26 28 18 22 23 23 24 25 20 21 27 29 28 30 30 28 28 28 30
29 28 26 26 27 28 28 29 29 30 31 30 31 30 29 29 28 26 26 25 25 24 24 26 27 19 21 22 23 23 23 22 21 26 31 31 32 30 32 33 30 30
28 28 26 27 28 28 29 30 29 30 29 30 32 32 32 30 28 28 28 27 27 27 26 26 27 19 21 22 23 23 18 23 23 25 29 33 32 30 32 34 32 30
27 28 28 30 29 30 31 30 31 30 29 30 33 30 29 29 30 30 29 27 26 28 29 28 27 22 23 23 23 23 22 26 25 27 28 29 32 31 32 32 30 22
27 27 26 26 28 29 29 29 31 31 30 32 32 28 29 29 28 30 29 29 28 27 18 28 30 22 22 22 24 24 25 26 28 25 27 31 33 33 31 32 32 22
22 21 20 19 20 22 27 25 25 28 28 30 30 31 32 31 30 33 31 31 29 27 26 29 29 26 21 22 22 23 25 26 27 26 27 30 32 33 31 31 31 30
Wind_Speed
10 11 12 13 14 14 14 15 13 13 11 12 12 12 12 12 12 13 13 13 13 13 10 12 13 12 9 9 10 10 9 10 10 9 11 11 10 12 11 12 11 9
11 12 11 12 13 13 14 14 13 13 13 14 13 11 11 11 12 12 12 12 11 7 8 13 13 12 11 11 11 11 10 9 10 9 10 13 11 12 12 13 12 11
11 12 13 14 14 15 15 15 15 15 14 14 13 11 11 10 10 11 13 13 13 15 16 14 15 15 14 13 12 12 11 11 11 11 11 12 11 11 11 12 11 13
12 13 13 14 15 16 15 15 15 14 14 14 14 12 10 10 10 11 12 14 12 13 13 13 14 14 15 15 14 12 12 12 11 11 11 11 11 11 11 11 11 11
12 12 13 15 15 15 15 16 17 16 16 16 15 14 12 10 11 12 11 12 13 14 14 14 13 12 14 15 15 13 13 12 12 12 12 12 12 12 11 11 12 13
12 12 13 14 15 15 15 17 18 17 17 17 17 14 13 12 12 12 12 12 13 14 15 15 15 14 13 15 15 14 13 12 12 14 15 14 13 13 11 12 13 13
13 13 14 14 15 17 17 17 17 17 17 16 15 16 15 14 14 14 13 12 14 14 15 15 15 16 14 12 14 15 14 13 14 15 16 14 14 15 14 13 14 13
14 13 14 14 15 16 18 18 17 17 17 17 16 16 15 15 15 13 12 13 13 14 15 16 15 17 15 13 13 15 14 12 14 16 16 16 14 15 16 13 13 14
14 14 14 15 16 15 18 19 18 18 17 18 17 15 15 15 15 14 13 14 14 13 15 16 16 14 14 13 14 16 16 14 14 16 16 16 16 16 16 15 14 14
15 14 15 15 16 15 18 19 18 17 17 19 18 14 12 14 14 14 14 14 14 14 15 15 16 14 13 14 16 16 17 17 16 16 16 16 16 16 16 15 16 14
17 16 15 16 17 15 18 19 19 18 17 19 18 15 15 16 13 14 14 14 14 15 15 15 16 15 12 12 15 16 17 17 17 17 16 16 16 16 16 16 16 16
17 16 17 17 17 17 18 18 18 18 18 17 18 18 19 17 14 12 13 15 15 15 15 15 16 13 12 13 12 16 15 16 16 16 16 16 16 16 16 16 15 16
18 17 16 16 16 16 16 16 18 18 19 19 17 18 17 15 14 15 16 15 15 15 15 15 15 15 14 12 13 11 14 17 16 15 15 15 16 16 16 16 16 16
17 17 16 16 15 16 17 17 18 18 19 19 18 18 17 16 13 12 14 14 14 14 14 14 14 14 15 13 10 14 12 16 15 15 16 15 15 15 15 15 16 16
17 16 15 16 16 16 17 18 19 19 20 18 18 16 15 16 13 14 16 18 14 13 14 13 10 6 5 7 7 12 15 18 16 14 13 15 14 13 14 15 15 15
19 16 16 16 16 16 18 17 18 17 18 18 19 17 16 15 14 13 17 17 14 14 13 10 7 7 9 14 13 10 5 6 5 7 11 12 11 12 13 14 15 14
18 16 16 17 16 16 16 17 18 17 17 19 18 17 17 14 12 13 16 16 13 13 13 10 9 7 16 16 16 17 13 8 6 6 5 11 12 11 11 14 14 15
18 16 17 17 16 17 17 16 17 15 13 13 14 14 14 13 13 15 17 14 11 12 12 10 11 11 18 18 17 17 15 10 10 10 11 13 14 13 12 14 15 14
17 16 17 16 16 17 15 16 14 12 14 16 19 14 11 10 11 13 17 13 11 12 11 11 10 13 18 20 18 17 19 16 11 12 13 13 12 12 12 14 14 13
16 16 17 16 16 15 14 13 11 15 16 16 15 12 13 14 15 16 12 12 11 12 11 11 12 11 17 17 16 16 17 14 7 10 14 13 12 11 12 13 14 14
16 17 16 15 16 15 13 11 10 16 17 16 13 12 14 13 14 15 12 11 11 11 11 11 10 13 16 18 17 18 18 15 10 9 10 10 9 8 9 10 13 13
16 15 15 15 15 15 13 13 15 15 13 11 10 10 10 12 14 12 13 12 12 12 12 12 9 15 16 17 18 18 18 11 9 11 13 11 7 10 10 12 13 16
15 15 14 15 15 15 16 16 15 17 14 12 13 15 17 16 12 11 13 13 13 13 12 10 10 13 17 18 18 19 14 10 9 11 14 14 10 11 12 12 16 18
14 15 15 16 16 17 16 16 16 14 15 12 16 16 15 14 14 14 14 13 15 14 13 12 12 14 18 19 19 19 16 13 13 13 13 13 14 13 12 13 18 18
13 14 13 12 13 14 14 14 13 13 14 12 14 14 15 14 13 14 12 13 15 15 14 15 13 12 18 19 20 19 16 12 13 11 12 13 14 15 15 15 16 16
5 2 4 5 5 7 8 7 7 8 7 12 15 13 12 13 13 12 16 16 15 14 13 15 13 10 14 18 19 19 20 13 13 13 13 14 13 14 14 16 16 15
Wind_Direction
253 255 252 240 230 228 225 227 228 229 239 242 233 232 232 229 223 212 205 203 203 212 222 226 210 207 206 211 211 217 222 213 209 205 202 196 197 192 195 201 205 206
254 249 252 251 240 233 231 229 228 224 226 234 239 233 233 234 231 225 210 204 196 180 218 236 224 211 204 208 206 208 215 215 212 207 205 199 199 197 199 199 202 206
247 248 245 243 241 240 237 233 232 230 227 227 229 229 232 233 236 226 220 207 191 190 204 213 213 205 204 204 205 207 209 210 211 210 209 206 203 204 200 198 202 205
241 241 244 243 238 238 240 238 233 232 231 231 229 227 231 234 233 233 229 217 199 198 202 214 218 208 199 198 199 202 204 206 207 210 213 213 210 206 200 198 202 205
244 238 236 238 238 233 233 236 235 234 233 232 231 228 225 229 239 237 232 225 218 209 207 209 217 222 211 202 196 198 201 204 203 206 213 214 209 208 206 201 201 205
245 242 236 234 232 230 229 230 232 233 234 232 229 226 223 220 228 233 231 228 224 222 218 215 211 208 211 214 204 200 202 201 202 204 212 214 210 208 210 207 203 204
243 242 240 237 233 228 227 227 228 228 230 229 228 226 223 217 218 225 227 227 226 223 221 214 214 213 207 212 216 205 200 201 203 207 211 214 213 210 211 211 209 206
242 239 239 236 234 228 226 226 225 226 227 226 225 222 218 216 215 214 218 223 224 224 225 221 210 219 214 205 216 216 208 201 203 207 210 211 212 214 209 209 210 211
245 239 236 235 232 230 226 226 226 226 225 224 220 217 213 213 214 213 213 219 221 223 224 223 218 215 220 211 212 214 213 208 207 207 207 208 209 213 210 207 208 209
247 241 236 234 231 228 229 225 224 224 225 224 220 212 213 213 210 213 216 217 220 222 222 223 219 215 216 221 218 215 212 212 210 210 209 208 210 212 212 209 211 210
246 241 236 233 232 229 228 227 224 224 224 223 219 210 210 217 206 210 215 216 218 222 221 221 217 212 209 223 224 218 215 214 212 210 210 210 211 214 213 211 210 212
246 241 237 233 232 232 230 228 225 223 222 220 218 211 210 213 201 206 210 215 217 220 222 223 218 202 202 214 230 228 218 216 215 213 213 212 211 213 213 212 214 211
244 241 237 233 230 232 230 226 225 223 222 219 217 214 210 206 200 203 216 215 217 219 223 225 222 208 201 205 221 231 228 222 216 217 216 212 213 213 214 215 214 214
245 244 239 234 230 228 231 228 224 222 220 218 214 211 209 205 198 205 221 216 217 219 222 225 224 215 203 202 213 231 233 233 216 211 214 209 210 213 214 214 215 215
240 244 240 235 230 227 229 229 224 221 219 214 212 209 208 203 196 198 217 220 212 218 222 224 223 184 133 132 187 237 239 230 219 212 210 213 208 212 214 215 214 213
235 236 236 232 229 226 227 226 227 220 218 214 212 207 207 204 198 202 218 218 210 216 223 219 200 200 176 170 176 195 246 286 271 238 228 221 214 217 215 215 214 213
232 232 233 228 226 226 225 222 223 219 216 214 210 208 204 200 192 201 219 219 210 215 222 214 210 196 162 162 172 185 186 192 203 223 231 253 241 225 223 215 214 214
227 227 229 226 224 223 222 221 221 213 216 220 215 206 201 198 194 195 217 212 206 216 221 214 214 178 177 190 192 194 197 187 189 199 204 207 213 215 219 222 215 212
225 223 226 223 222 221 217 221 211 195 206 217 212 198 189 204 215 207 212 199 201 210 213 210 213 183 189 197 195 190 195 196 195 206 208 205 207 208 216 222 216 210
220 221 222 220 220 217 213 214 214 208 202 208 215 204 201 196 213 215 200 197 201 207 206 209 213 185 181 187 194 196 201 207 238 224 218 213 205 205 216 225 223 214
216 219 217 217 217 214 203 196 213 216 197 210 203 199 203 199 203 213 202 202 202 204 206 207 212 164 176 182 191 197 200 198 221 234 233 221 219 219 230 232 229 217
214 212 213 213 213 206 200 190 198 221 201 193 194 202 207 211 207 205 202 203 203 202 205 203 202 159 180 181 187 196 195 198 210 222 230 223 218 232 231 231 235 231
211 211 206 210 206 198 202 193 199 211 208 195 194 199 201 202 193 201 208 204 201 201 199 205 210 167 180 184 187 191 186 203 203 215 226 226 217 219 226 227 228 228
215 210 204 205 199 199 197 200 195 199 206 200 201 202 197 193 193 199 203 199 197 193 193 200 209 189 182 186 187 184 190 203 209 211 215 221 223 215 219 227 231 231
220 215 215 211 211 204 200 203 199 204 207 201 209 204 194 192 192 200 198 202 196 193 186 198 206 189 179 181 185 182 191 210 211 208 210 218 222 223 218 221 230 218
257 300 12 351 354 8 17 2 360 306 250 214 211 208 202 193 194 196 195 202 199 192 186 197 208 192 171 178 180 181 189 204 217 212 213 213 216 221 221 223 226 228